Location: Cambroso
(45.2833°N, 12.0850°E)
Time: 10:36:57
(UTC+00:00)

Nadezhda 4 Rocket - Pass Details

Date: 21 January 2021
Orbit: 949 x 993 km, 82.9° (Epoch: 28 February)

Event Time Altitude Azimuth Distance (km) Brightness Sun altitude
Rises 17:32:43 0° 184° (S) 3,675 7.2 -15.5°
Reaches altitude 10° 17:35:14 10° 183° (S) 2,726 6.5 -16.0°
Maximum altitude 17:41:29 84° 97° (E) 985 3.9 -17.0°
Drops below altitude 10° 17:47:43 10° 10° (N) 2,714 6.1 -18.1°
Sets 17:50:13 0° 10° (N) 3,658 6.8 -18.5°
